Overview Statistics Trail Chart Weather Telemetry Raw packets
 

This is the latest recevied weather packets stored in our database for station/object K5MGY. If no packets are shown the sender has not sent any weather packets the latest 10 day(s).

<< 99 100 101 102 103 104 105 >>
Time Temp. Humidity Pressure Rain* Wind** Luminosity Snow
1787862622 39.44° C 34% 1037.9 hPa 0 mm - 459 W/m² -
1787862317 38.89° C 33% 1038 hPa 0 mm - 501 W/m² -
1787862013 38.89° C 34% 1037.9 hPa 0 mm - 322 W/m² -
1787861713 39.44° C 33% 1038.1 hPa 0 mm - 364 W/m² -
1787861411 40° C 33% 1038 hPa 0 mm - 232 W/m² -
1787861106 40° C 34% 1038 hPa 0 mm - 550 W/m² -
1787860804 40° C 34% 1038 hPa 0 mm - 620 W/m² -
1787860500 39.44° C 34% 1037.9 hPa 0 mm - 404 W/m² -
1787860200 38.89° C 35% 1038 hPa 0 mm - 215 W/m² -
1787859896 39.44° C 35% 1038 hPa 0 mm - 270 W/m² -
1787859591 39.44° C 35% 1038.2 hPa 0 mm - 517 W/m² -
1787859290 38.89° C 36% 1038.1 hPa 0 mm - 447 W/m² -
1787858988 38.89° C 36% 1038.3 hPa 0 mm - 577 W/m² -
1787858683 39.44° C 35% 1038.3 hPa 0 mm - 245 W/m² -
1787858378 40° C 36% 1038.4 hPa 0 mm - 475 W/m² -
1787858073 40° C 36% 1038.5 hPa 0 mm - 617 W/m² -
1787857768 40° C 35% 1038.7 hPa 0 mm - 712 W/m² -
1787857464 40° C 37% 1038.8 hPa 0 mm - 699 W/m² -
1787857162 39.44° C 36% 1038.7 hPa 0 mm - 694 W/m² -
1787856857 39.44° C 38% 1038.8 hPa 0 mm - 697 W/m² -
1787856556 39.44° C 38% 1038.8 hPa 0 mm - 694 W/m² -
1787856252 39.44° C 39% 1039 hPa 0 mm - 705 W/m² -
1787855948 39.44° C 39% 1039 hPa 0 mm - 711 W/m² -
1787855647 38.89° C 39% 1039.2 hPa 0 mm - 665 W/m² -
1787855343 38.89° C 39% 1039.1 hPa 0 mm - 589 W/m² -

* Rain latest hour (hover to see other rain measurements)
** Current wind speed in m/s (hover to see current wind gust speed)